Wetterdaten: Montag, 02.08.2010
Datum Zeit Temp. A. Feuchte A. Luftdruck Regen Wind Richtung Richtung Sonnenschein UV Solar Windben
02.08.2010 00:00 18,4 C 90 % 1013,0 hPa 0,0 mm 0,0 km/h (0 Bft) S 180 0 min 0 UV-I 0 W/m 1,6 km/h (1 Bft)
02.08.2010 00:10 18,3 C 90 % 1013,0 hPa 0,0 mm 0,0 km/h (0 Bft) S 180 0 min 0 UV-I 0 W/m 1,6 km/h (1 Bft)
02.08.2010 00:20 18,2 C 90 % 1013,0 hPa 0,0 mm 0,0 km/h (0 Bft) S-SW 202 0 min 0 UV-I 0 W/m 4,8 km/h (1 Bft)
02.08.2010 00:30 18,1 C 90 % 1013,1 hPa 0,0 mm 0,0 km/h (0 Bft) S-SW 202 0 min 0 UV-I 0 W/m 4,8 km/h (1 Bft)
02.08.2010 00:40 17,9 C 91 % 1013,3 hPa 0,0 mm 1,6 km/h (1 Bft) SW 225 0 min 0 UV-I 0 W/m 6,4 km/h (2 Bft)
02.08.2010 00:50 17,8 C 90 % 1013,1 hPa 0,0 mm 0,0 km/h (0 Bft) SW 225 0 min 0 UV-I 0 W/m 4,8 km/h (1 Bft)
02.08.2010 01:00 17,7 C 91 % 1013,0 hPa 0,0 mm 0,0 km/h (0 Bft) SW 225 0 min 0 UV-I 0 W/m 1,6 km/h (1 Bft)
02.08.2010 01:10 17,7 C 91 % 1013,0 hPa 0,0 mm 0,0 km/h (0 Bft) SW 225 0 min 0 UV-I 0 W/m 1,6 km/h (1 Bft)
02.08.2010 01:20 17,5 C 90 % 1013,1 hPa 0,0 mm 0,0 km/h (0 Bft) SW 225 0 min 0 UV-I 0 W/m 3,2 km/h (1 Bft)
02.08.2010 01:30 17,3 C 91 % 1013,0 hPa 0,0 mm 0,0 km/h (0 Bft) SW 225 0 min 0 UV-I 0 W/m 1,6 km/h (1 Bft)
02.08.2010 01:40 17,1 C 90 % 1013,2 hPa 0,0 mm 0,0 km/h (0 Bft) SW 225 0 min 0 UV-I 0 W/m 1,6 km/h (1 Bft)
02.08.2010 01:50 16,9 C 91 % 1013,3 hPa 0,0 mm 0,0 km/h (0 Bft) SW 225 0 min 0 UV-I 0 W/m 1,6 km/h (1 Bft)
02.08.2010 02:00 16,7 C 90 % 1013,3 hPa 0,0 mm 0,0 km/h (0 Bft) SW 225 0 min 0 UV-I 0 W/m 1,6 km/h (1 Bft)
02.08.2010 02:10 16,6 C 91 % 1013,4 hPa 0,0 mm 0,0 km/h (0 Bft) SW 225 0 min 0 UV-I 0 W/m 3,2 km/h (1 Bft)
02.08.2010 02:20 16,4 C 91 % 1013,5 hPa 0,0 mm 0,0 km/h (0 Bft) SW 225 0 min 0 UV-I 0 W/m 3,2 km/h (1 Bft)
02.08.2010 02:30 16,3 C 90 % 1013,5 hPa 0,0 mm 0,0 km/h (0 Bft) SW 225 0 min 0 UV-I 0 W/m 3,2 km/h (1 Bft)
02.08.2010 02:40 16,2 C 90 % 1013,4 hPa 0,0 mm 0,0 km/h (0 Bft) SW 225 0 min 0 UV-I 0 W/m 1,6 km/h (1 Bft)
02.08.2010 02:50 16,1 C 91 % 1013,4 hPa 0,0 mm 0,0 km/h (0 Bft) SW 225 0 min 0 UV-I 0 W/m 1,6 km/h (1 Bft)
02.08.2010 03:00 16,0 C 91 % 1013,4 hPa 0,0 mm 0,0 km/h (0 Bft) SW 225 0 min 0 UV-I 0 W/m 1,6 km/h (1 Bft)
02.08.2010 03:10 15,8 C 90 % 1013,5 hPa 0,0 mm 0,0 km/h (0 Bft) SW 225 0 min 0 UV-I 0 W/m 1,6 km/h (1 Bft)
02.08.2010 03:20 15,7 C 91 % 1013,3 hPa 0,0 mm 0,0 km/h (0 Bft) SW 225 0 min 0 UV-I 0 W/m 1,6 km/h (1 Bft)
02.08.2010 03:30 15,6 C 91 % 1013,3 hPa 0,0 mm 0,0 km/h (0 Bft) SW 225 0 min 0 UV-I 0 W/m 1,6 km/h (1 Bft)
02.08.2010 03:40 15,5 C 91 % 1013,3 hPa 0,0 mm 0,0 km/h (0 Bft) SW 225 0 min 0 UV-I 0 W/m 3,2 km/h (1 Bft)
02.08.2010 03:50 15,5 C 91 % 1013,2 hPa 0,0 mm 0,0 km/h (0 Bft) SW 225 0 min 0 UV-I 0 W/m 3,2 km/h (1 Bft)
02.08.2010 04:00 15,5 C 91 % 1013,1 hPa 0,0 mm 0,0 km/h (0 Bft) W-SW 247 0 min 0 UV-I 0 W/m 8,0 km/h (2 Bft)
02.08.2010 04:10 15,4 C 91 % 1013,2 hPa 0,0 mm 0,0 km/h (0 Bft) W-SW 247 0 min 0 UV-I 0 W/m 1,6 km/h (1 Bft)
02.08.2010 04:20 15,3 C 91 % 1013,3 hPa 0,0 mm 0,0 km/h (0 Bft) W-SW 247 0 min 0 UV-I 0 W/m 1,6 km/h (1 Bft)
02.08.2010 04:30 15,3 C 91 % 1013,4 hPa 0,0 mm 0,0 km/h (0 Bft) W-SW 247 0 min 0 UV-I 0 W/m 1,6 km/h (1 Bft)
02.08.2010 04:40 15,1 C 91 % 1013,3 hPa 0,0 mm 0,0 km/h (0 Bft) N 0 0 min 0 UV-I 0 W/m 0,0 km/h (0 Bft)
02.08.2010 04:50 15,1 C 91 % 1013,4 hPa 0,0 mm 0,0 km/h (0 Bft) N 0 0 min 0 UV-I 0 W/m 0,0 km/h (0 Bft)
02.08.2010 05:00 15,1 C 91 % 1013,8 hPa 0,0 mm 0,0 km/h (0 Bft) W-SW 247 0 min 0 UV-I 0 W/m 1,6 km/h (1 Bft)
02.08.2010 05:10 15,0 C 91 % 1013,9 hPa 0,0 mm 0,0 km/h (0 Bft) W-SW 247 0 min 0 UV-I 0 W/m 3,2 km/h (1 Bft)
02.08.2010 05:20 14,9 C 91 % 1013,9 hPa 0,0 mm 0,0 km/h (0 Bft) W-SW 247 0 min 0 UV-I 0 W/m 3,2 km/h (1 Bft)
02.08.2010 05:30 14,8 C 91 % 1013,9 hPa 0,0 mm 0,0 km/h (0 Bft) N 0 0 min 0 UV-I 0 W/m 0,0 km/h (0 Bft)
02.08.2010 05:40 14,7 C 91 % 1013,9 hPa 0,0 mm 0,0 km/h (0 Bft) N 0 0 min 0 UV-I 0 W/m 0,0 km/h (0 Bft)
02.08.2010 05:50 14,6 C 91 % 1014,0 hPa 0,0 mm 0,0 km/h (0 Bft) N 0 0 min 0 UV-I 0 W/m 0,0 km/h (0 Bft)
02.08.2010 06:00 14,6 C 91 % 1014,0 hPa 0,0 mm 0,0 km/h (0 Bft) N 0 0 min 0 UV-I 0 W/m 0,0 km/h (0 Bft)
02.08.2010 06:10 14,6 C 92 % 1014,1 hPa 0,0 mm 0,0 km/h (0 Bft) N 0 0 min 0 UV-I 9 W/m 0,0 km/h (0 Bft)
02.08.2010 06:20 14,6 C 91 % 1014,1 hPa 0,0 mm 0,0 km/h (0 Bft) N 0 0 min 0 UV-I 16 W/m 0,0 km/h (0 Bft)
02.08.2010 06:30 14,4 C 92 % 1014,0 hPa 0,0 mm 0,0 km/h (0 Bft) N 0 0 min 0 UV-I 16 W/m 0,0 km/h (0 Bft)
02.08.2010 06:40 14,3 C 92 % 1014,1 hPa 0,0 mm 0,0 km/h (0 Bft) N 0 0 min 0 UV-I 14 W/m 0,0 km/h (0 Bft)
02.08.2010 06:50 14,3 C 92 % 1014,3 hPa 0,0 mm 0,0 km/h (0 Bft) N 0 0 min 0 UV-I 11 W/m 0,0 km/h (0 Bft)
02.08.2010 07:00 14,3 C 92 % 1014,2 hPa 0,0 mm 0,0 km/h (0 Bft) N 0 0 min 0 UV-I 19 W/m 0,0 km/h (0 Bft)
02.08.2010 07:10 14,2 C 92 % 1014,2 hPa 0,0 mm 0,0 km/h (0 Bft) N 0 0 min 0 UV-I 35 W/m 0,0 km/h (0 Bft)
02.08.2010 07:20 14,2 C 93 % 1014,3 hPa 0,0 mm 0,0 km/h (0 Bft) N 0 0 min 0 UV-I 56 W/m 0,0 km/h (0 Bft)
02.08.2010 07:30 14,5 C 93 % 1014,4 hPa 0,0 mm 0,0 km/h (0 Bft) SW 225 0 min 1 UV-I 79 W/m 1,6 km/h (1 Bft)
02.08.2010 07:40 14,9 C 93 % 1014,3 hPa 0,0 mm 0,0 km/h (0 Bft) SW 225 10 min 1 UV-I 174 W/m 1,6 km/h (1 Bft)
02.08.2010 07:50 15,1 C 92 % 1014,4 hPa 0,0 mm 0,0 km/h (0 Bft) N 0 10 min 1 UV-I 202 W/m 0,0 km/h (0 Bft)
02.08.2010 08:00 15,7 C 91 % 1014,4 hPa 0,3 mm 0,0 km/h (0 Bft) O 101 10 min 1 UV-I 226 W/m 0,0 km/h (0 Bft)
02.08.2010 08:10 15,8 C 89 % 1014,5 hPa 0,0 mm 0,0 km/h (0 Bft) O-SO 112 10 min 1 UV-I 251 W/m 3,2 km/h (1 Bft)
02.08.2010 08:20 16,2 C 86 % 1014,5 hPa 0,0 mm 1,6 km/h (1 Bft) W-SW 247 10 min 1 UV-I 281 W/m 6,4 km/h (2 Bft)
02.08.2010 08:30 16,6 C 84 % 1014,5 hPa 0,0 mm 0,0 km/h (0 Bft) W-SW 247 10 min 1 UV-I 308 W/m 6,4 km/h (2 Bft)
02.08.2010 08:40 16,9 C 83 % 1014,7 hPa 0,0 mm 1,6 km/h (1 Bft) W-SW 247 10 min 1 UV-I 330 W/m 8,0 km/h (2 Bft)
02.08.2010 08:50 17,2 C 82 % 1014,7 hPa 0,0 mm 1,6 km/h (1 Bft) W 270 10 min 2 UV-I 355 W/m 4,8 km/h (1 Bft)
02.08.2010 09:00 17,6 C 81 % 1014,6 hPa 0,0 mm 0,0 km/h (0 Bft) W-SW 247 10 min 2 UV-I 381 W/m 6,4 km/h (2 Bft)
02.08.2010 09:10 17,6 C 80 % 1014,5 hPa 0,0 mm 1,6 km/h (1 Bft) W-NW 292 10 min 2 UV-I 406 W/m 6,4 km/h (2 Bft)
02.08.2010 09:20 17,8 C 80 % 1014,5 hPa 0,0 mm 3,2 km/h (1 Bft) W-SW 247 10 min 2 UV-I 443 W/m 8,0 km/h (2 Bft)
02.08.2010 09:30 17,9 C 79 % 1014,4 hPa 0,0 mm 3,2 km/h (1 Bft) W-SW 247 10 min 2 UV-I 466 W/m 9,7 km/h (2 Bft)
02.08.2010 09:40 18,1 C 78 % 1014,5 hPa 0,0 mm 1,6 km/h (1 Bft) W-SW 247 10 min 3 UV-I 483 W/m 6,4 km/h (2 Bft)
02.08.2010 09:50 18,7 C 76 % 1014,5 hPa 0,0 mm 0,0 km/h (0 Bft) W 270 10 min 3 UV-I 520 W/m 6,4 km/h (2 Bft)
02.08.2010 10:00 18,9 C 75 % 1014,4 hPa 0,0 mm 1,6 km/h (1 Bft) W-NW 292 10 min 3 UV-I 538 W/m 8,0 km/h (2 Bft)
02.08.2010 10:10 19,2 C 74 % 1014,4 hPa 0,0 mm 3,2 km/h (1 Bft) W 270 10 min 3 UV-I 568 W/m 8,0 km/h (2 Bft)
02.08.2010 10:20 19,5 C 72 % 1014,3 hPa 0,0 mm 1,6 km/h (1 Bft) W 270 10 min 4 UV-I 596 W/m 6,4 km/h (2 Bft)
02.08.2010 10:30 19,7 C 70 % 1014,2 hPa 0,0 mm 4,8 km/h (1 Bft) W-SW 247 10 min 4 UV-I 621 W/m 12,9 km/h (3 Bft)
02.08.2010 10:40 19,8 C 70 % 1014,3 hPa 0,0 mm 3,2 km/h (1 Bft) W-SW 247 10 min 4 UV-I 643 W/m 11,3 km/h (2 Bft)
02.08.2010 10:50 20,1 C 69 % 1014,3 hPa 0,0 mm 3,2 km/h (1 Bft) W 270 10 min 4 UV-I 673 W/m 11,3 km/h (2 Bft)
02.08.2010 11:00 20,6 C 68 % 1014,3 hPa 0,0 mm 1,6 km/h (1 Bft) NW 315 10 min 5 UV-I 754 W/m 8,0 km/h (2 Bft)
02.08.2010 11:10 20,8 C 66 % 1014,2 hPa 0,0 mm 3,2 km/h (1 Bft) W 270 10 min 5 UV-I 788 W/m 11,3 km/h (2 Bft)
02.08.2010 11:20 20,9 C 66 % 1014,2 hPa 0,0 mm 3,2 km/h (1 Bft) W-SW 247 10 min 5 UV-I 541 W/m 11,3 km/h (2 Bft)
02.08.2010 11:30 21,1 C 66 % 1014,0 hPa 0,0 mm 1,6 km/h (1 Bft) SW 225 10 min 6 UV-I 824 W/m 11,3 km/h (2 Bft)
02.08.2010 11:40 21,6 C 64 % 1013,9 hPa 0,0 mm 1,6 km/h (1 Bft) N 360 10 min 7 UV-I 805 W/m 9,7 km/h (2 Bft)
02.08.2010 11:50 22,1 C 61 % 1013,7 hPa 0,0 mm 1,6 km/h (1 Bft) W 270 10 min 7 UV-I 1164 W/m 8,0 km/h (2 Bft)
02.08.2010 12:00 21,8 C 63 % 1013,7 hPa 0,0 mm 1,6 km/h (1 Bft) NW 315 10 min 7 UV-I 656 W/m 11,3 km/h (2 Bft)
02.08.2010 12:10 21,8 C 62 % 1013,7 hPa 0,0 mm 3,2 km/h (1 Bft) NW 315 10 min 6 UV-I 554 W/m 14,5 km/h (3 Bft)
02.08.2010 12:20 21,7 C 63 % 1013,7 hPa 0,0 mm 1,6 km/h (1 Bft) O-SO 112 10 min 4 UV-I 452 W/m 9,7 km/h (2 Bft)
02.08.2010 12:30 21,5 C 64 % 1013,7 hPa 0,0 mm 1,6 km/h (1 Bft) SW 225 0 min 3 UV-I 374 W/m 6,4 km/h (2 Bft)
02.08.2010 12:40 21,4 C 65 % 1013,7 hPa 0,0 mm 1,6 km/h (1 Bft) N-NO 22 0 min 3 UV-I 339 W/m 6,4 km/h (2 Bft)
02.08.2010 12:50 21,3 C 63 % 1013,7 hPa 0,0 mm 1,6 km/h (1 Bft) W 270 10 min 4 UV-I 499 W/m 8,0 km/h (2 Bft)
02.08.2010 13:00 21,4 C 64 % 1013,6 hPa 0,0 mm 3,2 km/h (1 Bft) W-NW 292 10 min 5 UV-I 554 W/m 11,3 km/h (2 Bft)
02.08.2010 13:10 21,1 C 65 % 1013,7 hPa 0,0 mm 3,2 km/h (1 Bft) NW 315 0 min 2 UV-I 206 W/m 11,3 km/h (2 Bft)
02.08.2010 13:20 20,8 C 67 % 1013,6 hPa 0,0 mm 1,6 km/h (1 Bft) NW 315 0 min 1 UV-I 134 W/m 9,7 km/h (2 Bft)
02.08.2010 13:30 20,7 C 68 % 1013,8 hPa 0,0 mm 3,2 km/h (1 Bft) W-NW 292 0 min 1 UV-I 139 W/m 11,3 km/h (2 Bft)
02.08.2010 13:40 20,6 C 68 % 1013,8 hPa 0,0 mm 3,2 km/h (1 Bft) W 270 0 min 2 UV-I 243 W/m 11,3 km/h (2 Bft)
02.08.2010 13:50 20,6 C 68 % 1013,8 hPa 0,0 mm 4,8 km/h (1 Bft) W-NW 292 0 min 3 UV-I 279 W/m 14,5 km/h (3 Bft)
02.08.2010 14:00 20,6 C 69 % 1013,8 hPa 0,0 mm 3,2 km/h (1 Bft) W-NW 292 0 min 3 UV-I 338 W/m 16,1 km/h (3 Bft)
02.08.2010 14:10 20,8 C 66 % 1013,7 hPa 0,0 mm 3,2 km/h (1 Bft) W 270 10 min 7 UV-I 540 W/m 12,9 km/h (3 Bft)
02.08.2010 14:20 21,6 C 65 % 1013,7 hPa 0,0 mm 3,2 km/h (1 Bft) W 270 10 min 7 UV-I 1137 W/m 12,9 km/h (3 Bft)
02.08.2010 14:30 21,7 C 66 % 1013,9 hPa 0,0 mm 4,8 km/h (1 Bft) W-NW 292 10 min 7 UV-I 1107 W/m 14,5 km/h (3 Bft)
02.08.2010 14:40 21,3 C 67 % 1013,9 hPa 0,0 mm 3,2 km/h (1 Bft) NW 315 10 min 5 UV-I 563 W/m 12,9 km/h (3 Bft)
02.08.2010 14:50 21,4 C 67 % 1013,9 hPa 0,0 mm 4,8 km/h (1 Bft) W-NW 292 10 min 6 UV-I 494 W/m 16,1 km/h (3 Bft)
02.08.2010 15:00 21,3 C 68 % 1013,9 hPa 0,0 mm 4,8 km/h (1 Bft) W-NW 292 10 min 4 UV-I 436 W/m 14,5 km/h (3 Bft)
02.08.2010 15:10 21,1 C 68 % 1013,9 hPa 0,0 mm 3,2 km/h (1 Bft) W 270 0 min 3 UV-I 397 W/m 14,5 km/h (3 Bft)
02.08.2010 15:20 20,8 C 70 % 1014,0 hPa 0,0 mm 3,2 km/h (1 Bft) W-SW 247 0 min 2 UV-I 232 W/m 11,3 km/h (2 Bft)
02.08.2010 15:30 20,6 C 69 % 1014,1 hPa 0,0 mm 4,8 km/h (1 Bft) W 270 0 min 2 UV-I 186 W/m 11,3 km/h (2 Bft)
02.08.2010 15:40 20,3 C 71 % 1014,0 hPa 0,0 mm 1,6 km/h (1 Bft) W-SW 247 0 min 1 UV-I 109 W/m 12,9 km/h (3 Bft)
02.08.2010 15:50 20,2 C 71 % 1014,0 hPa 0,0 mm 6,4 km/h (2 Bft) W 270 0 min 1 UV-I 149 W/m 16,1 km/h (3 Bft)
02.08.2010 16:00 20,0 C 72 % 1013,9 hPa 0,0 mm 6,4 km/h (2 Bft) W 270 0 min 2 UV-I 234 W/m 17,7 km/h (3 Bft)
02.08.2010 16:10 19,8 C 73 % 1013,9 hPa 0,0 mm 4,8 km/h (1 Bft) W 270 0 min 2 UV-I 234 W/m 17,7 km/h (3 Bft)
02.08.2010 16:20 19,7 C 74 % 1013,9 hPa 0,0 mm 4,8 km/h (1 Bft) W 270 0 min 2 UV-I 241 W/m 16,1 km/h (3 Bft)
02.08.2010 16:30 19,6 C 75 % 1014,0 hPa 0,0 mm 3,2 km/h (1 Bft) W 270 0 min 2 UV-I 227 W/m 14,5 km/h (3 Bft)
02.08.2010 16:40 19,6 C 74 % 1014,0 hPa 0,0 mm 4,8 km/h (1 Bft) W-SW 247 0 min 1 UV-I 169 W/m 8,0 km/h (2 Bft)
02.08.2010 16:50 19,4 C 75 % 1013,9 hPa 0,0 mm 3,2 km/h (1 Bft) W 270 0 min 1 UV-I 158 W/m 9,7 km/h (2 Bft)
02.08.2010 17:00 19,3 C 76 % 1013,8 hPa 0,0 mm 3,2 km/h (1 Bft) W-SW 247 0 min 1 UV-I 151 W/m 8,0 km/h (2 Bft)
02.08.2010 17:10 19,3 C 76 % 1013,7 hPa 0,0 mm 3,2 km/h (1 Bft) W 270 0 min 1 UV-I 181 W/m 9,7 km/h (2 Bft)
02.08.2010 17:20 19,4 C 74 % 1013,6 hPa 0,0 mm 1,6 km/h (1 Bft) W 270 0 min 1 UV-I 185 W/m 9,7 km/h (2 Bft)
02.08.2010 17:30 19,4 C 75 % 1013,6 hPa 0,0 mm 3,2 km/h (1 Bft) W 270 0 min 1 UV-I 149 W/m 8,0 km/h (2 Bft)
02.08.2010 17:40 19,3 C 75 % 1013,5 hPa 0,0 mm 3,2 km/h (1 Bft) W 270 0 min 1 UV-I 200 W/m 9,7 km/h (2 Bft)
02.08.2010 17:50 19,4 C 75 % 1013,4 hPa 0,0 mm 1,6 km/h (1 Bft) W 270 0 min 1 UV-I 202 W/m 4,8 km/h (1 Bft)
02.08.2010 18:00 19,4 C 73 % 1013,4 hPa 0,0 mm 1,6 km/h (1 Bft) W 270 10 min 1 UV-I 274 W/m 6,4 km/h (2 Bft)
02.08.2010 18:10 19,6 C 72 % 1013,4 hPa 0,0 mm 0,0 km/h (0 Bft) W-NW 292 10 min 1 UV-I 255 W/m 4,8 km/h (1 Bft)
02.08.2010 18:20 19,7 C 72 % 1013,5 hPa 0,0 mm 1,6 km/h (1 Bft) W-NW 292 0 min 1 UV-I 176 W/m 6,4 km/h (2 Bft)
02.08.2010 18:30 19,6 C 70 % 1013,5 hPa 0,0 mm 1,6 km/h (1 Bft) W 270 0 min 1 UV-I 151 W/m 6,4 km/h (2 Bft)
02.08.2010 18:40 19,7 C 72 % 1013,4 hPa 0,0 mm 0,0 km/h (0 Bft) W 270 0 min 1 UV-I 113 W/m 6,4 km/h (2 Bft)
02.08.2010 18:50 19,7 C 71 % 1013,3 hPa 0,0 mm 0,0 km/h (0 Bft) W 270 0 min 1 UV-I 134 W/m 4,8 km/h (1 Bft)
02.08.2010 19:00 19,7 C 71 % 1013,2 hPa 0,0 mm 0,0 km/h (0 Bft) W 270 0 min 0 UV-I 65 W/m 3,2 km/h (1 Bft)
02.08.2010 19:10 19,5 C 72 % 1013,1 hPa 0,0 mm 0,0 km/h (0 Bft) W 270 0 min 0 UV-I 65 W/m 1,6 km/h (1 Bft)
02.08.2010 19:20 19,5 C 72 % 1013,0 hPa 0,0 mm 0,0 km/h (0 Bft) W 270 0 min 0 UV-I 70 W/m 3,2 km/h (1 Bft)
02.08.2010 19:30 19,4 C 71 % 1013,1 hPa 0,0 mm 0,0 km/h (0 Bft) W 270 0 min 0 UV-I 93 W/m 3,2 km/h (1 Bft)
02.08.2010 19:40 19,4 C 71 % 1013,1 hPa 0,0 mm 0,0 km/h (0 Bft) W 270 0 min 0 UV-I 60 W/m 3,2 km/h (1 Bft)
02.08.2010 19:50 19,3 C 72 % 1013,1 hPa 0,0 mm 0,0 km/h (0 Bft) W 270 0 min 0 UV-I 54 W/m 1,6 km/h (1 Bft)
02.08.2010 20:00 19,3 C 72 % 1013,0 hPa 0,0 mm 0,0 km/h (0 Bft) W 273 0 min 0 UV-I 42 W/m 0,0 km/h (0 Bft)
02.08.2010 20:10 19,2 C 73 % 1013,3 hPa 0,0 mm 0,0 km/h (0 Bft) W 273 0 min 0 UV-I 34 W/m 1,6 km/h (1 Bft)
02.08.2010 20:20 19,1 C 74 % 1013,4 hPa 0,0 mm 0,0 km/h (0 Bft) W 273 0 min 0 UV-I 26 W/m 0,0 km/h (0 Bft)
02.08.2010 20:30 19,1 C 75 % 1013,3 hPa 0,0 mm 0,0 km/h (0 Bft) W 273 0 min 0 UV-I 22 W/m 0,0 km/h (0 Bft)
02.08.2010 20:40 18,9 C 75 % 1013,4 hPa 0,0 mm 0,0 km/h (0 Bft) W 273 0 min 0 UV-I 11 W/m 0,0 km/h (0 Bft)
02.08.2010 20:50 18,9 C 75 % 1013,5 hPa 0,0 mm 0,1 km/h (0 Bft) W 273 0 min 0 UV-I 3 W/m 3,2 km/h (1 Bft)
02.08.2010 21:00 18,9 C 75 % 1013,2 hPa 0,0 mm 0,2 km/h (0 Bft) W 273 0 min 0 UV-I 0 W/m 3,2 km/h (1 Bft)
02.08.2010 21:10 18,9 C 76 % 1013,3 hPa 0,0 mm 1,1 km/h (1 Bft) W 274 0 min 0 UV-I 0 W/m 8,0 km/h (2 Bft)
02.08.2010 21:20 18,8 C 77 % 1013,4 hPa 0,0 mm 1,5 km/h (1 Bft) W 271 0 min 0 UV-I 0 W/m 6,4 km/h (2 Bft)
02.08.2010 21:30 18,3 C 79 % 1013,5 hPa 0,0 mm 2,5 km/h (1 Bft) S-SW 209 0 min 0 UV-I 0 W/m 9,7 km/h (2 Bft)
02.08.2010 21:40 17,9 C 81 % 1013,6 hPa 0,0 mm 0,3 km/h (0 Bft) S-SW 209 0 min 0 UV-I 0 W/m 3,2 km/h (1 Bft)
02.08.2010 21:50 17,7 C 82 % 1013,5 hPa 0,0 mm 0,3 km/h (0 Bft) SW 214 0 min 0 UV-I 0 W/m 8,0 km/h (2 Bft)
02.08.2010 22:00 17,6 C 83 % 1013,7 hPa 0,0 mm 0,3 km/h (0 Bft) SW 214 0 min 0 UV-I 0 W/m 4,8 km/h (1 Bft)
02.08.2010 22:10 17,5 C 83 % 1013,9 hPa 0,0 mm 0,8 km/h (0 Bft) SW 215 0 min 0 UV-I 0 W/m 4,8 km/h (1 Bft)
02.08.2010 22:20 17,4 C 84 % 1013,7 hPa 0,0 mm 0,3 km/h (0 Bft) SW 219 0 min 0 UV-I 0 W/m 4,8 km/h (1 Bft)
02.08.2010 22:30 17,4 C 84 % 1013,5 hPa 0,0 mm 1,6 km/h (1 Bft) SW 225 0 min 0 UV-I 0 W/m 8,0 km/h (2 Bft)
02.08.2010 22:40 17,4 C 84 % 1013,5 hPa 0,0 mm 0,0 km/h (0 Bft) SW 225 0 min 0 UV-I 0 W/m 3,2 km/h (1 Bft)
02.08.2010 22:50 17,4 C 84 % 1013,5 hPa 0,0 mm 0,0 km/h (0 Bft) SW 225 0 min 0 UV-I 0 W/m 1,6 km/h (1 Bft)
02.08.2010 23:00 17,4 C 84 % 1013,6 hPa 0,0 mm 0,0 km/h (0 Bft) SW 225 0 min 0 UV-I 0 W/m 4,8 km/h (1 Bft)
02.08.2010 23:10 17,3 C 84 % 1013,7 hPa 0,0 mm 0,0 km/h (0 Bft) SW 225 0 min 0 UV-I 0 W/m 4,8 km/h (1 Bft)
02.08.2010 23:20 17,2 C 84 % 1013,5 hPa 0,0 mm 0,0 km/h (0 Bft) W-SW 247 0 min 0 UV-I 0 W/m 3,2 km/h (1 Bft)
02.08.2010 23:30 17,0 C 84 % 1013,6 hPa 0,0 mm 0,0 km/h (0 Bft) W-SW 247 0 min 0 UV-I 0 W/m 3,2 km/h (1 Bft)
02.08.2010 23:40 16,9 C 84 % 1013,9 hPa 0,0 mm 0,0 km/h (0 Bft) W-SW 247 0 min 0 UV-I 0 W/m 1,6 km/h (1 Bft)
02.08.2010 23:50 16,7 C 84 % 1013,8 hPa 0,0 mm 0,0 km/h (0 Bft) W-SW 247 0 min 0 UV-I 0 W/m 4,8 km/h (1 Bft)
_ Min-Zeit 07:10 11:50 00:00 - 00:00 - - - - - 04:40
Minimum _ 14,1 C 61 % 1013,0 hPa - 0,0 km/h (0 Bft) - - - - - 0,0 km/h (0 Bft)
_ Max-Zeit 11:50 07:20 08:40 08:00 15:50 - - 07:40 14:20 11:50 16:00
Maximum _ 22,6 C 93 % 1014,7 hPa 0,3 mm 6,4 km/h
W (2 Bft)
- - 10 min 7 UV-I 1164 W/m 17,7 km/h
W (3 Bft)
Durchschnitt _ 18,2 C 80 % 1013,7 hPa #0,3 mm 1,3 km/h (1 Bft) W - #6:30 h 3 UV-I 311 W/m 5,9 km/h (2 Bft)